Погода Охоны

Погода Охоны : погода сейчас, прогноз погоды и архив. Всё, что Вы хотите узнать о погоде Охоны!

Поиск расширенной информации на нашем сайте:

Другие новости

Новости СМИ2

Главная страница сайта

Новости сайта

03.07.2017

Напоминаем, что на нашем специализированном сайте Метеоцентр.Азия вы можете получить высокодетализированные автоматические прогнозы погоды по пунктам России, СНГ и мира в авиационном формате (включающие направление и скорость ветра, видимость, явления погоды, количество и форму облачности, нижнюю и верхнюю границу облачности).


Погода Охоны - сегодня

Время (UTC), дата Ветер
(°,м/с) 
Видим.   Явления Облачность Т
(°С)
Тd
(°С)
f(%) Тe
(°С)
Pmin
(гПа)
dP
(гПа)
Po
(мм)
O2
(г/м3)
Тmin Tmax R s Состояние
почвы
00 15.02.18 тихо ()   н/о    н/о 
-18.8 -20.5 86 -19  1035.5  0.7  761  331           
03 15.02.18 тихо ()   н/о    н/о 
-20.1 -22.1 84 -20  1035.7  0.1  762  333  -20.2         
09 15.02.18 110 (В) н/о    н/о 
-10.1 -13 79 -10  1035.9  0.4  762  320           
12 15.02.18 140 (ЮВ) н/о    н/о 
-6.4 -11.1 69 -8  1034.9  -0.7  762  315           
15 15.02.18 140 (ЮВ) н/о    н/о 
-7.2 -11.3 72 -9  1034.3  -0.6  761  316           
21 15.02.18 140 (ЮВ) н/о    н/о 
-8.6 -11.2 81 -10  1033.1  -0.9  760  317           
00 16.02.18 150 (ЮВ) н/о    н/о 
-8.4 -10.5 85 -8  1032.3  -0.8  760  317           
03 16.02.18 150 (ЮВ) н/о    н/о 
-8.3 -9.9 88 -8  1031.1  -1.1  759  316  -8.8         
09 16.02.18 160 (Ю) н/о    н/о 
-5.8 -8.3 82 -5  1030  0.1  758  313           
12 16.02.18 160 (Ю) н/о    н/о 
-4.6 -7.4 81 -6  1029.2  -0.7  758  311           
15 16.02.18 160 (Ю) н/о    н/о 
-4.8 -7 85 -4  1028.5  -0.7  757  311           
21 16.02.18 140 (ЮВ) н/о    н/о 
-5.9 -6.8 93 -6  1027.5  -0.5  756  312           
00 17.02.18 130 (ЮВ) н/о    н/о 
-6.4 -7.1 95 -6  1026.8  -0.7  756  313           
03 17.02.18 120 (ЮВ) н/о    н/о 
-6.3 -7 95 -6  1025.6  -1.2  755  312  -6.6         
09 17.02.18 160 (Ю) н/о    н/о 
-3.3 -5.1 87 -4  1023.7  -0.8  754  308           
12 17.02.18 140 (ЮВ) н/о    н/о 
-2.7 -4.8 85 -2  1022.8  -0.9  753  307           
15 17.02.18 130 (ЮВ) н/о    н/о 
-3.6 -4.8 91 -5  1022.3  -0.5  753  308           
21 17.02.18 120 (ЮВ) н/о    н/о 
-5.2 -5.9 95 -5  1021.8  -0.5  752  310           
00 18.02.18 110 (В) н/о    н/о 
-5.4 -6.1 95 -5  1021.6  -0.2  752  310           
03 18.02.18 100 (В) н/о    н/о 
-6.3 -7 95 -6  1020.9  -0.8  751  311  -6.3         
09 18.02.18 100 (В) н/о    н/о 
-4.8 -6.5 88 -4  1019.8  -0.7  751  309           
12 18.02.18 090 (В) н/о    н/о 
-4.2 -5.7 89 -5  1019  -0.8  750  308           
15 18.02.18 110 (В) н/о    н/о 
-5.1 -6 93 -6  1018.9  0.1  750  309           
21 18.02.18 тихо ()   н/о    н/о 
-6.6 -7.2 95 -7  1018.4  -0.4  750  310           
00 19.02.18 тихо ()   н/о    н/о 
-8 -8.7 95 -8  1018.1  -0.4  749  312           
Время (UTC), дата Ветер
(°,м/с) 
Видим.   Явления Облачность Т
(°С)
Тd
(°С)
f(%) Тe
(°С)
Pmin
(гПа)
dP
(гПа)
Po
(мм)
O2
(г/м3)
Тmin Tmax R s Состояние
почвы

Для получения пояснительной информации подведите курсор к названию столбца.

ПОГОДА Охоны - архив

Всё, что Вы хотите узнать о погоде Охоны - удобно и подробно!

Выберите нужную дату (начиная с 1 января 2015* года) и нажмите кнопку "Найти".
Будут отображены архивные сводки погоды по пункту Охоны, начиная с указанной даты.


Отображать данные в формате CSV (для использования в таблицах Excel)


Внимание! Наш архив погоды предназначен исключительно для личного некоммерческого использования в познавательных целях. Если Вам необходимы официальные справки о состоянии погоды (для производственных, юридических, коммерческих и т.п. целей), обращайтесь в органы Росгидромета.

*Примечание: данная дата относится к архиву по метеостанциям СССР (Россия, СНГ, Балтия).
Архив по метеостанциям Зарубежной Европы и Азии (кроме Китая) хранится 10 дней, по другим регионам земного шара (Китай, Африка, Америка, Австралия, Океания) - 1 день.

Охоны - район местоположения метеостанции


Название, широта, долгота, высота метеостанции:
Охоны 58.6°ш. 35.6°д. 145 м над ур. моря [Российская Федерация]

Дополнительная информация

В oтличие oт бoльшинства пoгoдных сайтoв мы публикуем пoдрoбную метеoинфoрмацию в детальнoм прoфессиoнальнoм фoрмате.

Характеристики температуры и влажнoсти вoздуха измеряются на высoте 2 м в тени вдали oт зданий и деревьев.
Скoрoсть ветра измеряется на высoте 10 м (на урoвне рoста челoвека скoрoсть ветра ниже в 1.5-2 раза). Если метеoстанция нахoдится в гoрoде или в лесу, тo скoрoсть ветра занижена на 2-4 м/с пo сравнению с oткрытым местoм. Скoрoсть ветра над акватoриями крупных рек и oзёр, а также на вершинах хoлмoв на 2-5 м/с выше, чем в oбычных услoвиях.
Атмoсфернoе давление в разных тoчках местнoсти мoжет значительнo oтличаться oт давления на метеoстанции, в зависимoсти oт услoвий рельефа (при пoдъёме на 10 м давление пoнижается примернo на 1 мм рт.ст.).